Location: Newark
(52.3500°N, 175.9667°E)
Time: 22:12:22
(UTC+00:00)

Altair - Pass Details

Date: 23 April 2021
Orbit: 1501 x 1683 km, 47.2° (Epoch: 05 May)

Event Time Altitude Azimuth Distance (km) Brightness Sun altitude
Rises 15:30:19 0° 192° (SSW) 4,903 - -12.5°
Exits shadow 15:31:17 - 189° (S) 4,652 9.6 -12.4°
Reaches altitude 10° 15:34:26 10° 178° (S) 3,899 9.3 -12.0°
Maximum altitude 15:41:24 22° 133° (SE) 3,012 9.1 -11.2°
Drops below altitude 10° 15:48:14 10° 88° (E) 3,816 10.5 -10.4°
Sets 15:52:10 0° 74° (ENE) 4,773 11.6 -9.9°
